Weather History for Linden, NJ

Change the Weather History Date:

Monday, March 4, 2013

  Actual Average (KEWR) Record (KEWR)
Temperature  
Mean Temperature 36 °F 38 °F  
Max Temperature 44 °F 47 °F 72 °F (1974)
Min Temperature 29 °F 30 °F 6 °F (1943)
Degree Days  
Heating Degree Days 29 27  
Month to date heating degree days 108  
Since 1 July heating degree days 3743  
Cooling Degree Days 0 0  
Month to date cooling degree days 0  
Year to date cooling degree days 0  
Moisture  
Dew Point 19 °F    
Average Humidity 51    
Maximum Humidity 66    
Minimum Humidity 39    
Precipitation  
Precipitation 0.00 in 0.12 in 1.29 in (1977)
Month to date precipitation 0.48  
Year to date precipitation 6.90  
Snow  
Snow 0.00 in 0.20 in 3.70 in (1971)
Month to date snowfall 0.9  
Since 1 July snowfall 23.9  
Snow Depth -    
Sea Level Pressure  
Sea Level Pressure 29.83 in    
Wind  
Wind Speed 14 mph (WNW)    
Max Wind Speed 21 mph    
Max Gust Speed 32 mph    
Visibility 10 miles    
Events      
T = Trace of Precipitation, MM = Missing Value Source: NWS Daily Summary

Daily Weather History Graph

Daily Weather History Graph

Search for Another Location

Airport:

Trip Planner

Search our weather history database for the weather conditions in past years. The results will help you decide how hot, cold, wet, or windy it might be!

Date:

Astronomy

Mar. 04, 2013 Rise Set
Actual Time 6:25 AM EST 5:51 PM EST
Civil Twilight 5:58 AM EST 6:19 PM EST
Nautical Twilight 5:26 AM EST 6:50 PM EST
Astronomical Twilight 4:55 AM EST 7:22 PM EST
Moon 12:33 AM EST (3/4) 10:30 AM EST (3/4)
Length of Visible Light 12h 20m
Length of Day
11h 26m
Waning Gibbous, 52% of the Moon is Illuminated
Mar 4
Waning Gibbous
Mar 4
Last Quarter
Mar 11
New
Mar 19
First Quarter
Mar 27
Full

Hourly Weather History & Observations

Time (EST) Temp. Windchill Dew Point Humidity Pressure Visibility Wind Dir Wind Speed Gust Speed Precip Events Conditions
12:15 AM 30.9 °F 19.8 °F 16.7 °F 56% 29.78 in 10.0 mi NW 16.1 mph 24.2 mph N/A   Clear
12:35 AM 30.7 °F 19.2 °F 16.2 °F 55% 29.79 in 10.0 mi WNW 17.3 mph 27.6 mph N/A   Clear
1:15 AM 30.2 °F 20.2 °F 15.8 °F 55% 29.79 in 10.0 mi WNW 12.7 mph 24.2 mph N/A   Clear
1:35 AM 30.0 °F 19.1 °F 15.8 °F 56% 29.79 in 10.0 mi WNW 15.0 mph 23.0 mph N/A   Clear
1:55 AM 29.8 °F 18.9 °F 15.8 °F 56% 29.79 in 10.0 mi WNW 15.0 mph 18.4 mph N/A   Clear
2:15 AM 29.7 °F 19.1 °F 15.8 °F 56% 29.79 in 10.0 mi WNW 13.8 mph 18.4 mph N/A   Clear
2:35 AM 29.7 °F 19.6 °F 15.8 °F 56% 29.79 in 10.0 mi WNW 12.7 mph 17.3 mph N/A   Clear
2:55 AM 29.3 °F 19.1 °F 16.3 °F 58% 29.79 in 10.0 mi WNW 12.7 mph 18.4 mph N/A   Clear
3:15 AM 29.3 °F 20.8 °F 16.7 °F 59% 29.79 in 10.0 mi WNW 9.2 mph - N/A   Clear
3:35 AM 29.3 °F 19.6 °F 16.7 °F 59% 29.79 in 10.0 mi WNW 11.5 mph - N/A   Clear
3:55 AM 29.3 °F 20.2 °F 17.4 °F 61% 29.79 in 10.0 mi NW 10.4 mph 18.4 mph N/A   Clear
4:15 AM 29.3 °F 19.1 °F 18.0 °F 63% 29.80 in 10.0 mi WNW 12.7 mph - N/A   Clear
4:35 AM 29.3 °F 20.8 °F 18.3 °F 64% 29.80 in 10.0 mi WNW 9.2 mph 17.3 mph N/A   Clear
4:55 AM 29.3 °F 20.8 °F 18.3 °F 64% 29.80 in 10.0 mi WNW 9.2 mph - N/A   Clear
5:35 AM 29.3 °F 21.5 °F 18.5 °F 64% 29.81 in 10.0 mi WNW 8.1 mph - N/A   Clear
5:55 AM 29.3 °F 20.2 °F 19.0 °F 66% 29.81 in 10.0 mi WNW 10.4 mph - N/A   Clear
6:15 AM 29.5 °F 21.1 °F 19.2 °F 66% 29.82 in 10.0 mi WNW 9.2 mph - N/A   Clear
6:35 AM 30.0 °F 19.1 °F 19.4 °F 65% 29.82 in 10.0 mi WNW 15.0 mph 18.4 mph N/A   Scattered Clouds
6:55 AM 30.2 °F 22.6 °F 19.8 °F 65% 29.83 in 10.0 mi WNW 8.1 mph - N/A   Mostly Cloudy
7:15 AM 31.1 °F 19.7 °F 19.8 °F 63% 29.83 in 10.0 mi WNW 17.3 mph 21.9 mph N/A   Overcast
7:35 AM 31.6 °F 21.6 °F 19.9 °F 62% 29.84 in 10.0 mi WNW 13.8 mph 19.6 mph N/A   Overcast
7:55 AM 32.0 °F 23.0 °F 19.8 °F 61% 29.84 in 10.0 mi WNW 11.5 mph 19.6 mph N/A   Mostly Cloudy
8:15 AM 32.9 °F 23.2 °F 19.9 °F 59% 29.83 in 10.0 mi WNW 13.8 mph 18.4 mph N/A   Mostly Cloudy
8:35 AM 32.5 °F 23.7 °F 19.8 °F 59% 29.83 in 10.0 mi WNW 11.5 mph 20.7 mph N/A   Mostly Cloudy
8:55 AM 34.5 °F 23.4 °F 19.8 °F 55% 29.83 in 10.0 mi WNW 19.6 mph 25.3 mph N/A   Mostly Cloudy
9:15 AM 35.1 °F 25.2 °F 19.8 °F 54% 29.83 in 10.0 mi WNW 16.1 mph 25.3 mph N/A   Scattered Clouds
9:55 AM 36.7 °F 29.4 °F 20.8 °F 53% 29.83 in 10.0 mi WNW 10.4 mph 21.9 mph N/A   Scattered Clouds
10:15 AM 36.1 °F 26.5 °F 20.8 °F 54% 29.83 in 10.0 mi WNW 16.1 mph 21.9 mph N/A   Mostly Cloudy
10:35 AM 37.2 °F 28.3 °F 20.8 °F 52% 29.83 in 10.0 mi WNW 15.0 mph 20.7 mph N/A   Scattered Clouds
10:55 AM 37.8 °F 28.0 °F 20.7 °F 50% 29.83 in 10.0 mi WNW 18.4 mph 24.2 mph N/A   Clear
11:15 AM 38.8 °F 29.1 °F 20.5 °F 48% 29.82 in 10.0 mi West 19.6 mph 24.2 mph N/A   Clear
11:35 AM 40.3 °F 32.6 °F 20.5 °F 45% 29.81 in 10.0 mi WNW 13.8 mph 21.9 mph N/A   Clear
11:55 AM 41.4 °F 32.7 °F 20.3 °F 43% 29.81 in 10.0 mi WNW 18.4 mph 24.2 mph N/A   Clear
12:15 PM 42.3 °F 34.4 °F 20.5 °F 42% 29.81 in 10.0 mi West 16.1 mph 25.3 mph N/A   Clear
12:35 PM 42.8 °F 35.8 °F 21.0 °F 42% 29.81 in 10.0 mi WNW 13.8 mph 27.6 mph N/A   Clear
1:15 PM 43.0 °F 35.1 °F 20.3 °F 40% 29.79 in 10.0 mi WNW 17.3 mph 29.9 mph N/A   Scattered Clouds
1:35 PM 43.2 °F 34.7 °F 20.5 °F 40% 29.79 in 10.0 mi WNW 19.6 mph 32.2 mph N/A   Clear
1:55 PM 43.5 °F 36.1 °F 20.8 °F 41% 29.79 in 10.0 mi NW 16.1 mph 26.5 mph N/A   Clear
2:15 PM 43.3 °F 34.7 °F 20.3 °F 40% 29.78 in 10.0 mi West 20.7 mph 27.6 mph N/A   Clear
2:35 PM 43.7 °F 35.4 °F 20.5 °F 40% 29.79 in 10.0 mi WNW 19.6 mph 27.6 mph N/A   Clear
2:55 PM 43.9 °F 35.9 °F 20.1 °F 39% 29.79 in 10.0 mi WNW 18.4 mph 26.5 mph N/A   Clear
3:15 PM 43.5 °F 36.7 °F 20.1 °F 39% 29.79 in 10.0 mi WNW 13.8 mph - N/A   Clear
3:35 PM 43.5 °F 35.5 °F 19.9 °F 39% 29.79 in 10.0 mi NW 18.4 mph 27.6 mph N/A   Clear
3:55 PM 43.0 °F 36.4 °F 19.2 °F 39% 29.80 in 10.0 mi NW 12.7 mph 25.3 mph N/A   Clear
4:15 PM 43.0 °F 35.4 °F 19.2 °F 39% 29.80 in 10.0 mi NW 16.1 mph 23.0 mph N/A   Clear
4:35 PM 42.8 °F 35.4 °F 19.4 °F 39% 29.80 in 10.0 mi WNW 15.0 mph 19.6 mph N/A   Clear
4:55 PM 42.8 °F 34.5 °F 19.2 °F 39% 29.80 in 10.0 mi WNW 18.4 mph 21.9 mph N/A   Clear
5:15 PM 42.1 °F 33.6 °F 18.9 °F 39% 29.81 in 10.0 mi WNW 18.4 mph 27.6 mph N/A   Clear
5:35 PM 41.4 °F 34.7 °F 18.7 °F 40% 29.82 in 10.0 mi NW 11.5 mph 24.2 mph N/A   Clear
5:55 PM 40.5 °F 32.5 °F 18.9 °F 42% 29.83 in 10.0 mi WNW 15.0 mph 26.5 mph N/A   Clear
6:15 PM 39.9 °F 31.1 °F 19.2 °F 43% 29.84 in 10.0 mi WNW 17.3 mph 24.2 mph N/A   Clear
6:35 PM 39.2 °F 30.5 °F 18.9 °F 44% 29.85 in 10.0 mi NW 16.1 mph 23.0 mph N/A   Clear
6:55 PM 38.5 °F 31.1 °F 18.9 °F 45% 29.86 in 10.0 mi WNW 11.5 mph 16.1 mph N/A   Clear
7:15 PM 38.3 °F 30.1 °F 18.9 °F 46% 29.86 in 10.0 mi WNW 13.8 mph 20.7 mph N/A   Clear
7:35 PM 37.4 °F 28.9 °F 19.0 °F 48% 29.87 in 10.0 mi WNW 13.8 mph 25.3 mph N/A   Clear
7:55 PM 37.0 °F 29.3 °F 19.2 °F 49% 29.88 in 10.0 mi WNW 11.5 mph 24.2 mph N/A   Clear
8:15 PM 36.9 °F 29.1 °F 19.4 °F 49% 29.88 in 10.0 mi WNW 11.5 mph 18.4 mph N/A   Clear
8:35 PM 36.5 °F 27.8 °F 19.4 °F 50% 29.89 in 10.0 mi WNW 13.8 mph 19.6 mph N/A   Clear
8:55 PM 36.5 °F 28.7 °F 19.4 °F 50% 29.89 in 10.0 mi WNW 11.5 mph 21.9 mph N/A   Clear
9:15 PM 36.1 °F 28.2 °F 19.9 °F 52% 29.90 in 10.0 mi WNW 11.5 mph 18.4 mph N/A   Clear
9:35 PM 35.6 °F 27.5 °F 20.3 °F 54% 29.90 in 10.0 mi WNW 11.5 mph - N/A   Mostly Cloudy
10:15 PM 36.0 °F 29.6 °F 20.3 °F 53% 29.91 in 10.0 mi WNW 8.1 mph - N/A   Mostly Cloudy
10:35 PM 36.1 °F 28.7 °F 20.3 °F 53% 29.92 in 10.0 mi NW 10.4 mph 19.6 mph N/A   Mostly Cloudy
10:55 PM 36.0 °F 25.3 °F 20.1 °F 53% 29.92 in 10.0 mi NW 19.6 mph 31.1 mph N/A   Scattered Clouds
11:15 PM 35.6 °F 25.2 °F 20.1 °F 53% 29.93 in 10.0 mi NW 18.4 mph 27.6 mph N/A   Clear
11:35 PM 35.2 °F 28.1 °F 20.3 °F 55% 29.93 in 10.0 mi NW 9.2 mph 21.9 mph N/A   Clear
11:55 PM 34.9 °F 28.3 °F 20.3 °F 55% 29.93 in 10.0 mi NW 8.1 mph - N/A   Scattered Clouds